Home   Weather   Bamako   Past weeks

Flag for Mali Past Weather in Bamako, Mali — Yesterday and Last 2 Weeks

Now
88 °F

Passing clouds.


Feels Like: 86 °F
Forecast: 80 / 103 °F
Wind: 3 mph from North

Location: Bamako / Senou

Current Time: Apr 29, 2017 at 1:46:20 am

Latest Report: Apr 29, 2017 at 1:00 am


Visibility: N/A

Pressure: 29.86 "Hg

Humidity: 33%

Dew Point: 55 °F

Location of BamakoLocation

Past Weather in Bamako — Graph

°F

Bamako Temperature Yesterday

Maximum temperature yesterday: 106 °F (at 3:30 pm)
Minimum temperature yesterday: 84 °F (at 3:30 am)
Average temperature yesterday: 94 °F

High & Low Weather Summary for the Past Weeks

 TemperatureHumidityPressure
High108 °F (Apr 20, 4:00 pm)79% (Apr 18, 9:00 am)30.01 "Hg (Apr 18, 9:00 am)
Low73 °F (Apr 16, 3:00 am)6% (Apr 14, 3:00 pm)29.71 "Hg (Apr 20, 5:00 pm)
Average91 °F32%29.85 "Hg
* Reported Apr 14 12:00 am — Apr 29 12:30 am, Bamako, Weather by CustomWeather, © 2017

Note: Actual official high and low records may vary slightly from our data, if they occured in-between our weather recording intervals... More about our weather records

Advertising

Bamako Weather History for the Previous 24 Hours

Scroll right to see more
 ConditionsComfort  
Time TempWeatherWind HumidityBarometerVisibility
12:30 am
Sat, Apr 29
91 °FClear.6 mph30%29.89 "Hg10 mi
12:00 am91 °FClear.6 mph26%29.89 "Hg10 mi
11:30 pm
Fri, Apr 28
91 °FClear.6 mph26%29.89 "Hg10 mi
11:00 pm93 °FClear.6 mph24%29.89 "Hg10 mi
10:30 pm95 °FClear.7 mph22%29.89 "Hg10 mi
10:00 pm93 °FClear.6 mph24%29.86 "Hg10 mi
9:30 pm95 °FClear.5 mph23%29.86 "Hg10 mi
9:00 pm97 °FClear.5 mph22%29.86 "Hg10 mi
8:30 pm97 °FClear.5 mph20%29.86 "Hg10 mi
8:00 pm99 °FClear.6 mph21%29.86 "Hg10 mi
7:30 pm99 °FClear.7 mph21%29.86 "Hg10 mi
7:00 pm100 °FClear.9 mph18%29.83 "Hg10 mi
6:30 pm102 °FSunny.9 mph17%29.83 "Hg10 mi
6:00 pm102 °FPassing clouds.6 mph17%29.80 "HgN/A
5:30 pm104 °FPassing clouds.5 mph17%29.80 "HgN/A
5:00 pm104 °FPassing clouds.3 mph17%29.80 "HgN/A
4:30 pm104 °FPassing clouds.7 mph16%29.80 "HgN/A
4:00 pm104 °FPassing clouds.8 mph15%29.80 "HgN/A
3:30 pm106 °FPassing clouds.7 mph17%29.83 "HgN/A
3:00 pm104 °FPassing clouds.9 mph17%29.83 "HgN/A
2:30 pm104 °FPassing clouds.5 mph17%29.86 "HgN/A
2:00 pm104 °FPassing clouds.6 mph17%29.86 "HgN/A
1:00 pm102 °FPassing clouds.6 mph21%29.92 "HgN/A
12:00 pm99 °FSunny.7 mph27%29.92 "Hg10 mi
11:30 am97 °FSunny.9 mph30%29.92 "Hg10 mi
11:00 am95 °FSunny.13 mph34%29.95 "Hg10 mi
10:30 am95 °FSunny.16 mph32%29.95 "Hg10 mi
10:00 am93 °FSunny.14 mph34%29.95 "Hg10 mi
9:30 am93 °FSunny.14 mph34%29.95 "Hg10 mi
9:00 am90 °FSunny.12 mph36%29.95 "Hg10 mi
8:30 am90 °FSunny.9 mph36%29.95 "Hg10 mi
7:30 am84 °FPassing clouds.5 mph48%29.92 "HgN/A
7:00 am84 °FPassing clouds.2 mph48%29.92 "HgN/A
6:30 am84 °FPassing clouds.3 mph48%29.92 "HgN/A
6:00 am84 °FPassing clouds.5 mph48%29.92 "HgN/A
5:30 am84 °FPassing clouds.3 mph45%29.89 "Hg5 mi
5:00 am84 °FPassing clouds.8 mph45%29.86 "Hg5 mi
4:30 am84 °FPassing clouds.3 mph48%29.86 "Hg5 mi
4:00 am84 °FPassing clouds.5 mph45%29.86 "Hg5 mi
3:30 am84 °FPassing clouds.7 mph45%29.86 "Hg5 mi
3:00 am86 °FPassing clouds.9 mph43%29.86 "Hg5 mi
2:30 am86 °FPassing clouds.12 mph43%29.89 "Hg5 mi
2:00 am86 °FPassing clouds.14 mph43%29.89 "Hg5 mi
1:30 am99 °FPassing clouds.3 mph16%29.89 "Hg5 mi
1:00 am97 °FPassing clouds.15 mph16%29.92 "Hg5 mi
Weather by CustomWeather, © 2017

See weather overviewHow to use our weather pages